CZ-6A DEB, 61371

Orbit data source: Space-Track

CZ-6A DEB, 61371 is space debris in LEO originally from a launch on Tue, 06 Aug 2024 UTC launched from the Taiyaun Space Center, China (TSC). Debris objects in space refer to the collection of defunct objects orbiting the Earth. Examples of debris include non-operational satellites, rocket bodies, and fragments generated from explosions, collisions, or faulty payload assembly.

Loading next visibility...
Identifier
61371, 2024-140WL
Orbit
LEO
Country
Flag of CNCN / PRC
Related business
Manufacturer
SAST
Mission
Spacecraft
Bus & Motor
Unknown
Mass
Unknown
Launch date (UTC)
2024-08-06 (1 year ago)
Launch vehicle
Unknown
Launch site
Taiyaun Space Center, China (TSC)
Object type
Payload
Rocket body
Debris
Shape & HBR
Unknown shape, 1.1 m
Radar Cross Section
Small (<0.1 m²)

Expand to show TLE details & history
Last TLE update: 3 days ago

TLE from 3 days ago
0 CZ-6A DEB
1 61371U 24140WL  25351.71862462  .00006660  00000-0  19384-2 0  9996
2 61371  88.4395 260.3176 0114722 280.2812  78.5470 14.40348243 67380
Epoch: 2025-12-17T17:14Z
TLE epoch observation values (Epoch: 2025-12-17T17:14:49.167Z)
Latitude
-0.00006°
Longitude
-84.97172°
Altitude
745.075 km
Speed
7.49 km/s
True Right ascension
17h 21m 16s
True Declination
0° 00' 00"
Sunlit
Object was in daylight at epoch
Visualization orbit readout
Latitude
Unknown
Longitude
Unknown
Altitude
Unknown
Speed
Unknown
Apparent Right ascension
Unknown
Apparent Declination
Unknown
Sunlit
N/A
Visualization observer readout
Local Sidereal Time
08:15:55
Azimuth
Unknown
Elevation
Unknown
Doppler factor
Unknown
Orbital elements
Apogee altitude
836.098 km
Perigee altitude
672.449 km
Semi-major axis
7,132.411 km
Eccentricity
0.01147
Inclination
88.4395°
RAAN
260.3176°
Arg. of periapsis
280.2812°
True anomaly
79.83901°
Mean anomaly
78.547°
Eccentric anomaly
79.19265°
Mean motion
3.6032 °/min
Orbital period
99.91 mins
BSTAR
0.0019384
Loading maneuver chart data...
Computing Atmospheric mass density...

Documentation

Showing up to 5 results
|